COSMOS 2499 DEB, 55722

Orbit data source: Space-Track

COSMOS 2499 DEB, 55722 is space debris in LEO originally from a launch on Fri, 23 May 2014 UTC launched from the Plesetsk Missile And Space Complex (PKMTR). Debris objects in space refer to the collection of defunct objects orbiting the Earth. Examples of debris include non-operational satellites, rocket bodies, and fragments generated from explosions, collisions, or faulty payload assembly.

Loading next visibility...
Identifier
55722, 2014-028AJ
Orbit
LEO
Country
Flag of CISCIS
Related business
Manufacturer
TsNIIKhM
Mission
Spacecraft
Bus & Motor
Unknown
Mass
Unknown
Launch date (UTC)
2014-05-23 (12 years ago)
Launch vehicle
Unknown
Launch site
Plesetsk Missile And Space Complex (PKMTR)
Object type
Payload
Rocket body
Debris
Shape & HBR
Unknown shape, 0.1 m
Radar Cross Section
Small (<0.1 m²)

Expand to show TLE details & history
Last TLE update: 20 hours ago

TLE from 20 hours ago
0 COSMOS 2499 DEB
1 55722U 14028AJ  25349.36890010  .00002835  00000-0  11397-1 0  9996
2 55722  82.3530  16.0219 0182265 107.6061 254.5039 12.81095361 58814
Epoch: 2025-12-15T08:51Z
TLE epoch observation values (Epoch: 2025-12-15T08:51:12.968Z)
Latitude
-0.00006°
Longitude
158.9494°
Altitude
1,379.762 km
Speed
7.151 km/s
True Right ascension
01h 04m 05s
True Declination
0° 00' 00"
Sunlit
Object was in daylight at epoch
Visualization orbit readout
Latitude
Unknown
Longitude
Unknown
Altitude
Unknown
Speed
Unknown
Apparent Right ascension
Unknown
Apparent Declination
Unknown
Sunlit
N/A
Visualization observer readout
Local Sidereal Time
03:22:59
Azimuth
Unknown
Elevation
Unknown
Doppler factor
Unknown
Orbital elements
Apogee altitude
1,474.943 km
Perigee altitude
1,193.799 km
Semi-major axis
7,712.508 km
Eccentricity
0.01823
Inclination
82.353°
RAAN
16.0219°
Arg. of periapsis
107.6061°
True anomaly
252.50381°
Mean anomaly
254.5039°
Eccentric anomaly
253.50259°
Mean motion
3.20442 °/min
Orbital period
112.34 mins
BSTAR
0.011397
Loading maneuver chart data...
Computing Atmospheric mass density...
Loading historical data...
Loading historical data...
Loading historical data...
Loading historical data...
Loading historical data...
Loading historical data...
Loading historical data...

Documentation

Showing up to 5 results
|